Simultaneous Nadir Overpasses (SNOs) Predictions

Prediction of SNOs between GOES-15 and TERRA Satellite Orbit:

Table of predicted SNOs for the next 14.0 days since TLE Epoch: 6/4/2022
Index Date Time (GOES-15) GOES-15 Lat,Lon TERRA Lat,Lon Distance(km) Time Diff (sec)
1 06/04/2022 06:40:11 0.20,-128.10 0.70,-125.67 275.29 80
2 06/04/2022 19:04:05 -0.19,-128.13 0.39,-130.83 306.97 80
3 06/06/2022 18:49:12 -0.20,-128.18 -0.28,-127.89 33.70 80
4 06/08/2022 18:36:58 -0.20,-128.23 -0.89,-124.94 373.96 80
5 06/09/2022 07:01:01 0.18,-128.22 -0.25,-130.13 217.56 80
6 06/11/2022 06:46:08 0.19,-128.26 0.43,-127.19 122.00 80
7 06/11/2022 19:10:03 -0.17,-128.29 0.66,-132.35 461.09 80
8 06/13/2022 06:33:54 0.19,-128.29 1.04,-124.23 460.62 80
9 06/13/2022 18:57:49 -0.17,-128.31 0.05,-129.39 122.63 80
10 06/15/2022 18:42:55 -0.18,-128.33 -0.57,-126.44 214.84 80
11 06/16/2022 07:06:59 0.16,-128.32 -0.51,-131.64 376.81 80
